Time,TemperatureF,DewpointF,PressureIn,WindDirection,WindDirectionDegrees,WindSpeedMPH,WindSpeedGustMPH,Humidity,HourlyPrecipIn,Conditions,Clouds,dailyrainin,SoftwareType,DateUTC
2013-02-12 00:05:00,35.0,28.0,30.02,ENE,62,3.0,6.0,75,0.00,,,0.00,weatherlink.com 1.10,2013-02-12 05:05:00,
2013-02-12 00:20:00,34.8,28.0,30.02,NE,53,3.0,5.0,76,0.00,,,0.00,weatherlink.com 1.10,2013-02-12 05:20:00,
2013-02-12 00:35:00,34.5,28.0,30.03,ENE,77,1.0,3.0,76,0.00,,,0.00,weatherlink.com 1.10,2013-02-12 05:35:00,
2013-02-12 00:50:00,34.3,28.0,30.03,ENE,77,1.0,4.0,77,0.00,,,0.00,weatherlink.com 1.10,2013-02-12 05:50:00,
2013-02-12 01:05:00,34.0,28.0,30.03,NNE,23,1.0,3.0,77,0.00,,,0.00,weatherlink.com 1.10,2013-02-12 06:05:00,
2013-02-12 01:20:00,33.7,28.0,30.04,East,98,0.0,4.0,78,0.00,,,0.00,weatherlink.com 1.10,2013-02-12 06:20:00,
2013-02-12 01:35:00,33.5,27.0,30.04,ENE,68,1.0,3.0,78,0.00,,,0.00,weatherlink.com 1.10,2013-02-12 06:35:00,
2013-02-12 01:51:00,33.0,27.0,30.05,East,88,1.0,1.0,79,0.00,,,0.00,weatherlink.com 1.10,2013-02-12 06:51:00,
2013-02-12 02:05:00,32.7,27.0,30.05,ESE,115,1.0,2.0,80,0.00,,,0.00,weatherlink.com 1.10,2013-02-12 07:05:00,
2013-02-12 02:20:00,32.6,27.0,30.05,NE,47,1.0,3.0,80,0.00,,,0.00,weatherlink.com 1.10,2013-02-12 07:20:00,
2013-02-12 02:35:00,33.0,27.0,30.05,ENE,63,0.0,4.0,80,0.00,,,0.00,weatherlink.com 1.10,2013-02-12 07:35:00,
2013-02-12 02:50:00,32.8,27.0,30.06,ESE,120,1.0,2.0,80,0.00,,,0.00,weatherlink.com 1.10,2013-02-12 07:50:00,
2013-02-12 03:05:00,32.3,27.0,30.06,ESE,120,2.0,3.0,80,0.00,,,0.00,weatherlink.com 1.10,2013-02-12 08:05:00,
2013-02-12 03:20:00,31.6,26.0,30.06,ESE,117,0.0,3.0,81,0.00,,,0.00,weatherlink.com 1.10,2013-02-12 08:20:00,
2013-02-12 03:35:00,31.0,26.0,30.06,SE,136,0.0,2.0,83,0.00,,,0.00,weatherlink.com 1.10,2013-02-12 08:35:00,
2013-02-12 03:51:00,30.4,26.0,30.06,SE,143,4.0,5.0,84,0.00,,,0.00,weatherlink.com 1.10,2013-02-12 08:51:00,
2013-02-12 04:06:00,30.4,26.0,30.07,SE,130,0.0,2.0,85,0.00,,,0.00,weatherlink.com 1.10,2013-02-12 09:06:00,
2013-02-12 04:21:00,30.4,27.0,30.07,SE,139,1.0,6.0,86,0.00,,,0.00,weatherlink.com 1.10,2013-02-12 09:21:00,
2013-02-12 04:36:00,29.6,26.0,30.07,SE,124,0.0,2.0,86,0.00,,,0.00,weatherlink.com 1.10,2013-02-12 09:36:00,
2013-02-12 04:51:00,29.2,26.0,30.07,ESE,103,0.0,4.0,87,0.00,,,0.00,weatherlink.com 1.10,2013-02-12 09:51:00,
2013-02-12 05:06:00,29.0,25.0,30.08,East,87,0.0,1.0,86,0.00,,,0.00,weatherlink.com 1.10,2013-02-12 10:06:00,
2013-02-12 05:21:00,28.4,25.0,30.08,ESE,104,0.0,3.0,87,0.00,,,0.00,weatherlink.com 1.10,2013-02-12 10:21:00,
2013-02-12 05:36:00,28.3,25.0,30.09,East,94,1.0,4.0,87,0.00,,,0.00,weatherlink.com 1.10,2013-02-12 10:36:00,
2013-02-12 05:51:00,28.2,25.0,30.09,ESE,104,0.0,4.0,86,0.00,,,0.00,weatherlink.com 1.10,2013-02-12 10:51:00,
2013-02-12 06:06:00,27.9,24.0,30.09,ESE,104,0.0,2.0,86,0.00,,,0.00,weatherlink.com 1.10,2013-02-12 11:06:00,
2013-02-12 06:21:00,27.7,24.0,30.10,ESE,120,0.0,2.0,87,0.00,,,0.00,weatherlink.com 1.10,2013-02-12 11:21:00,
2013-02-12 06:36:00,27.8,24.0,30.10,ESE,108,0.0,1.0,87,0.00,,,0.00,weatherlink.com 1.10,2013-02-12 11:36:00,
2013-02-12 06:51:00,27.7,24.0,30.10,ESE,119,0.0,2.0,86,0.00,,,0.00,weatherlink.com 1.10,2013-02-12 11:51:00,
2013-02-12 07:06:00,27.5,24.0,30.10,SE,132,0.0,1.0,86,0.00,,,0.00,weatherlink.com 1.10,2013-02-12 12:06:00,
2013-02-12 07:21:00,27.2,24.0,30.11,SE,133,0.0,1.0,87,0.00,,,0.00,weatherlink.com 1.10,2013-02-12 12:21:00,
2013-02-12 07:36:00,26.7,23.0,30.11,SE,124,0.0,1.0,87,0.00,,,0.00,weatherlink.com 1.10,2013-02-12 12:36:00,
2013-02-12 07:51:00,25.8,23.0,30.11,SE,124,0.0,1.0,88,0.00,,,0.00,weatherlink.com 1.10,2013-02-12 12:51:00,
2013-02-12 08:06:00,25.9,23.0,30.11,SE,124,0.0,1.0,89,0.00,,,0.00,weatherlink.com 1.10,2013-02-12 13:06:00,
2013-02-12 08:21:00,26.8,24.0,30.12,ESE,122,0.0,1.0,89,0.00,,,0.00,weatherlink.com 1.10,2013-02-12 13:21:00,
2013-02-12 08:36:00,27.5,24.0,30.12,ESE,117,0.0,2.0,87,0.00,,,0.00,weatherlink.com 1.10,2013-02-12 13:36:00,
2013-02-12 08:51:00,28.3,24.0,30.12,SE,130,1.0,2.0,85,0.00,,,0.00,weatherlink.com 1.10,2013-02-12 13:51:00,
2013-02-12 09:06:00,29.6,25.0,30.12,ESE,111,1.0,2.0,84,0.00,,,0.00,weatherlink.com 1.10,2013-02-12 14:06:00,
2013-02-12 09:21:00,31.7,26.0,30.13,ESE,122,2.0,4.0,78,0.00,,,0.00,weatherlink.com 1.10,2013-02-12 14:21:00,
2013-02-12 09:36:00,34.9,26.0,30.12,SE,128,1.0,2.0,71,0.00,,,0.00,weatherlink.com 1.10,2013-02-12 14:36:00,
2013-02-12 09:52:00,34.8,26.0,30.13,SE,134,1.0,5.0,70,0.00,,,0.00,weatherlink.com 1.10,2013-02-12 14:52:00,
2013-02-12 10:06:00,35.2,27.0,30.13,NNE,16,0.0,3.0,71,0.00,,,0.00,weatherlink.com 1.10,2013-02-12 15:06:00,
2013-02-12 10:21:00,36.6,27.0,30.12,SE,131,1.0,2.0,68,0.00,,,0.00,weatherlink.com 1.10,2013-02-12 15:21:00,
2013-02-12 10:36:00,37.3,27.0,30.11,ENE,63,3.0,3.0,66,0.00,,,0.00,weatherlink.com 1.10,2013-02-12 15:36:00,
2013-02-12 10:51:00,37.3,28.0,30.10,NE,39,2.0,2.0,69,0.00,,,0.00,weatherlink.com 1.10,2013-02-12 15:51:00,
2013-02-12 11:06:00,37.5,27.0,30.11,NE,41,4.0,4.0,66,0.00,,,0.00,weatherlink.com 1.10,2013-02-12 16:06:00,
2013-02-12 11:21:00,39.2,28.0,30.12,NE,51,2.0,5.0,64,0.00,,,0.00,weatherlink.com 1.10,2013-02-12 16:21:00,
2013-02-12 11:37:00,40.7,28.0,30.12,SE,131,3.0,4.0,60,0.00,,,0.00,weatherlink.com 1.10,2013-02-12 16:37:00,
2013-02-12 11:52:00,42.5,28.0,30.11,SSE,158,1.0,3.0,57,0.00,,,0.00,weatherlink.com 1.10,2013-02-12 16:52:00,
2013-02-12 12:22:00,43.6,28.0,30.09,ESE,113,2.0,5.0,54,0.00,,,0.00,weatherlink.com 1.10,2013-02-12 17:22:00,
2013-02-12 12:37:00,45.5,28.0,30.06,NE,42,0.0,3.0,51,0.00,,,0.00,weatherlink.com 1.10,2013-02-12 17:37:00,
2013-02-12 12:52:00,47.1,29.0,30.02,SE,143,0.0,3.0,50,0.00,,,0.00,weatherlink.com 1.10,2013-02-12 17:52:00,
2013-02-12 13:07:00,48.5,27.0,30.02,North,349,0.0,3.0,44,0.00,,,0.00,weatherlink.com 1.10,2013-02-12 18:07:00,
2013-02-12 13:22:00,49.9,27.0,30.01,ESE,111,1.0,3.0,42,0.00,,,0.00,weatherlink.com 1.10,2013-02-12 18:22:00,
2013-02-12 13:37:00,48.7,27.0,30.03,ENE,67,3.0,6.0,43,0.00,,,0.00,weatherlink.com 1.10,2013-02-12 18:37:00,
2013-02-12 13:52:00,48.6,27.0,30.05,ENE,68,1.0,5.0,44,0.00,,,0.00,weatherlink.com 1.10,2013-02-12 18:52:00,
2013-02-12 14:07:00,48.6,28.0,30.04,East,98,2.0,5.0,45,0.00,,,0.00,weatherlink.com 1.10,2013-02-12 19:07:00,
2013-02-12 14:22:00,49.1,28.0,30.03,NE,50,2.0,7.0,44,0.00,,,0.00,weatherlink.com 1.10,2013-02-12 19:22:00,
2013-02-12 14:37:00,49.2,29.0,30.04,NE,56,4.0,7.0,45,0.00,,,0.00,weatherlink.com 1.10,2013-02-12 19:37:00,
2013-02-12 14:52:00,49.6,27.0,30.02,NE,43,2.0,6.0,42,0.00,,,0.00,weatherlink.com 1.10,2013-02-12 19:52:00,
2013-02-12 15:07:00,50.5,27.0,30.02,ESE,115,2.0,8.0,41,0.00,,,0.00,weatherlink.com 1.10,2013-02-12 20:07:00,
2013-02-12 15:22:00,51.7,28.0,30.01,NE,43,2.0,5.0,41,0.00,,,0.00,weatherlink.com 1.10,2013-02-12 20:22:00,
2013-02-12 15:37:00,51.0,27.0,30.02,NNE,26,2.0,7.0,40,0.00,,,0.00,weatherlink.com 1.10,2013-02-12 20:37:00,
2013-02-12 15:52:00,51.1,27.0,30.02,NNE,23,4.0,6.0,40,0.00,,,0.00,weatherlink.com 1.10,2013-02-12 20:52:00,
2013-02-12 16:07:00,51.4,27.0,30.01,NE,39,2.0,5.0,39,0.00,,,0.00,weatherlink.com 1.10,2013-02-12 21:07:00,
2013-02-12 16:22:00,51.4,27.0,30.00,ENE,75,2.0,6.0,39,0.00,,,0.00,weatherlink.com 1.10,2013-02-12 21:22:00,
2013-02-12 16:37:00,50.6,26.0,30.00,NE,38,3.0,8.0,38,0.00,,,0.00,weatherlink.com 1.10,2013-02-12 21:37:00,
2013-02-12 16:52:00,49.6,26.0,30.00,ENE,58,4.0,5.0,40,0.00,,,0.00,weatherlink.com 1.10,2013-02-12 21:52:00,
2013-02-12 17:08:00,47.3,26.0,29.99,NNE,20,1.0,4.0,43,0.00,,,0.00,weatherlink.com 1.10,2013-02-12 22:08:00,
2013-02-12 17:22:00,46.3,26.0,29.98,ENE,77,0.0,4.0,45,0.00,,,0.00,weatherlink.com 1.10,2013-02-12 22:22:00,
2013-02-12 17:37:00,45.4,26.0,29.98,ESE,105,0.0,1.0,47,0.00,,,0.00,weatherlink.com 1.10,2013-02-12 22:37:00,
2013-02-12 17:53:00,44.4,26.0,29.98,ESE,106,0.0,1.0,49,0.00,,,0.00,weatherlink.com 1.10,2013-02-12 22:53:00,
2013-02-12 18:07:00,43.1,26.0,29.97,ESE,105,0.0,0.0,51,0.00,,,0.00,weatherlink.com 1.10,2013-02-12 23:07:00,
2013-02-12 18:22:00,42.2,26.0,29.96,SE,138,0.0,1.0,53,0.00,,,0.00,weatherlink.com 1.10,2013-02-12 23:22:00,
2013-02-12 18:37:00,40.9,26.0,29.96,SE,138,0.0,0.0,56,0.00,,,0.00,weatherlink.com 1.10,2013-02-12 23:37:00,
2013-02-12 18:53:00,39.9,26.0,29.96,SE,138,0.0,1.0,57,0.00,,,0.00,weatherlink.com 1.10,2013-02-12 23:53:00,
2013-02-12 19:07:00,38.6,25.0,29.96,SE,138,0.0,0.0,59,0.00,,,0.00,weatherlink.com 1.10,2013-02-13 00:07:00,
2013-02-12 19:22:00,37.2,25.0,29.95,SE,138,0.0,0.0,62,0.00,,,0.00,weatherlink.com 1.10,2013-02-13 00:22:00,
2013-02-12 19:37:00,36.8,25.0,29.95,SE,138,0.0,0.0,63,0.00,,,0.00,weatherlink.com 1.10,2013-02-13 00:37:00,
2013-02-12 19:52:00,37.6,25.0,29.95,SE,138,0.0,0.0,62,0.00,,,0.00,weatherlink.com 1.10,2013-02-13 00:52:00,
2013-02-12 20:08:00,37.4,25.0,29.95,SE,138,0.0,0.0,62,0.00,,,0.00,weatherlink.com 1.10,2013-02-13 01:08:00,
2013-02-12 20:23:00,36.8,26.0,29.95,SE,138,0.0,0.0,64,0.00,,,0.00,weatherlink.com 1.10,2013-02-13 01:23:00,
2013-02-12 20:38:00,36.4,26.0,29.95,SE,138,0.0,0.0,66,0.00,,,0.00,weatherlink.com 1.10,2013-02-13 01:38:00,
2013-02-12 20:53:00,35.7,25.0,29.94,SE,138,0.0,0.0,66,0.00,,,0.00,weatherlink.com 1.10,2013-02-13 01:53:00,
2013-02-12 21:08:00,34.9,25.0,29.95,SE,138,0.0,-999.0,68,-99.99,,,0.00,weatherlink.com 1.10,2013-02-13 02:08:00,
2013-02-12 21:23:00,35.1,25.0,29.94,SE,138,0.0,0.0,68,0.00,,,0.00,weatherlink.com 1.10,2013-02-13 02:23:00,
2013-02-12 21:38:00,35.0,26.0,29.94,SE,139,0.0,0.0,69,0.00,,,0.00,weatherlink.com 1.10,2013-02-13 02:38:00,
2013-02-12 22:08:00,34.6,26.0,29.93,SE,138,0.0,1.0,70,0.00,,,0.00,weatherlink.com 1.10,2013-02-13 03:08:00,
2013-02-12 22:23:00,33.2,25.0,29.93,SE,138,0.0,0.0,72,0.00,,,0.00,weatherlink.com 1.10,2013-02-13 03:23:00,
2013-02-12 22:38:00,33.1,26.0,29.93,SE,138,0.0,0.0,75,0.00,,,0.00,weatherlink.com 1.10,2013-02-13 03:38:00,
2013-02-12 22:53:00,33.2,26.0,29.93,SW,236,0.0,1.0,76,0.00,,,0.00,weatherlink.com 1.10,2013-02-13 03:53:00,
2013-02-12 23:08:00,33.3,27.0,29.93,SW,234,0.0,1.0,76,0.00,,,0.00,weatherlink.com 1.10,2013-02-13 04:08:00,
2013-02-12 23:23:00,33.3,27.0,29.93,SW,233,0.0,0.0,76,0.00,,,0.00,weatherlink.com 1.10,2013-02-13 04:23:00,
2013-02-12 23:38:00,33.7,27.0,29.93,ESE,105,0.0,3.0,76,0.00,,,0.00,weatherlink.com 1.10,2013-02-13 04:38:00,
2013-02-12 23:53:00,33.9,27.0,29.93,SSE,156,1.0,2.0,76,0.00,,,0.00,weatherlink.com 1.10,2013-02-13 04:53:00,